Temperature
19 20 20 20 24 24 22 22 23 23 22 21 21 20 19 17 18 15 12 12 13 14 14 14 15 15 15 15 15 15 15 16 16 15 15 16 16 16 16 16 16 16 16 16 16 17 16 17 16
19 20 20 22 25 23 21 22 21 21 20 20 20 18 16 12 9 10 11 12 13 13 14 14 15 15 15 15 15 14 14 15 15 15 15 16 16 16 16 15 15 16 16 16 16 16 16 16 16
20 20 21 24 23 22 21 20 21 20 18 20 18 14 11 8 6 7 8 10 13 14 14 14 14 14 15 15 15 15 14 14 14 14 14 14 15 15 15 15 15 15 16 16 16 16 16 16 16
20 21 23 23 20 19 19 19 19 21 18 16 17 13 7 6 6 6 8 10 12 13 13 13 14 14 14 15 15 14 14 14 14 14 14 14 14 14 14 15 15 15 15 16 16 15 15 15 16
20 23 23 21 20 18 16 15 15 17 16 15 15 12 8 6 6 7 8 10 12 12 13 13 13 14 14 14 14 14 14 14 14 14 14 14 14 14 14 14 14 15 15 15 15 15 15 15 15
21 24 22 20 19 19 17 13 15 13 13 12 14 12 8 6 7 7 8 10 11 12 12 13 13 13 13 13 13 13 13 13 14 14 14 14 14 14 14 14 14 14 14 15 15 15 15 15 15
22 22 21 20 19 17 15 12 11 12 11 10 11 12 9 7 7 7 8 9 11 12 12 12 12 12 12 12 12 12 12 13 13 13 13 13 13 13 13 13 13 14 14 14 14 14 14 15 15
20 23 21 20 18 15 13 11 10 10 9 8 9 10 8 6 7 7 9 10 11 11 12 12 12 12 12 12 12 12 12 12 12 13 13 13 13 13 13 13 13 13 13 14 14 14 14 14 15
21 22 20 19 18 15 13 12 10 9 8 7 6 6 6 6 7 8 10 10 11 11 11 11 11 11 11 11 12 12 12 12 12 12 12 12 12 12 12 13 13 13 13 13 13 13 13 14 14
21 20 17 16 17 14 11 11 10 9 8 8 7 6 6 6 7 8 8 8 9 9 9 10 10 10 11 11 11 11 11 11 12 12 12 12 12 12 12 12 12 13 13 13 13 13 13 13 13
18 17 14 13 12 11 9 9 9 9 8 7 6 6 6 6 7 7 6 6 7 8 9 9 9 9 10 10 10 10 11 11 11 11 11 11 11 11 12 12 12 12 12 12 12 13 12 12 13
14 14 14 12 11 11 10 9 7 7 6 5 5 5 5 5 5 5 5 5 6 7 8 8 9 9 9 9 9 9 9 9 9 10 11 11 11 11 11 11 11 11 12 12 12 12 12 12 12
13 11 10 9 8 8 8 7 6 6 5 5 5 5 4 4 4 4 4 5 6 6 7 7 7 7 8 8 8 8 7 7 6 6 7 8 8 9 10 10 10 10 11 11 11 12 12 12 12
13 11 11 10 9 8 8 7 7 5 5 5 5 5 4 4 3 4 4 4 4 5 5 5 5 5 6 6 6 5 5 5 5 4 4 4 5 6 6 7 8 8 9 10 10 11 11 11 12
13 13 12 11 10 9 9 7 6 5 6 5 5 4 4 3 3 3 3 3 3 3 3 3 4 4 4 4 4 4 4 3 3 3 2 2 2 3 5 5 5 5 7 8 8 9 10 10 11
17 17 16 12 12 10 12 7 6 5 6 5 5 4 4 3 3 2 2 2 2 2 2 2 2 2 3 3 3 3 3 2 1 1 1 1 2 2 3 3 3 4 5 5 6 6 7 8 9
19 19 16 13 10 11 11 7 5 5 5 5 5 5 4 3 3 2 1 1 1 1 1 1 1 1 0 1 1 1 1 1 0 -0 -1 -0 0 1 1 1 2 2 3 3 3 4 4 6 7
19 18 16 14 10 10 9 7 5 5 5 5 5 4 4 3 2 1 1 1 1 1 1 0 -0 -0 -1 -0 -0 -0 -1 -1 -1 -1 -1 -1 -1 -1 -0 -0 1 1 1 2 2 3 3 4 5
17 17 15 12 9 9 8 6 6 5 5 5 5 4 3 3 2 1 0 -0 -1 -1 -1 -1 -1 -2 -2 -3 -3 -2 -3 -3 -4 -4 -3 -2 -2 -2 -3 -3 -2 -1 -1 0 0 1 1 2 3
17 16 14 10 9 9 7 6 6 5 5 4 4 4 3 2 2 1 -0 -1 -2 -3 -3 -3 -3 -3 -4 -5 -4 -4 -4 -4 -4 -5 -5 -4 -4 -5 -5 -5 -5 -4 -3 -2 -2 -1 -1 -0 1
16 16 15 12 8 8 7 7 6 6 5 4 4 4 3 2 1 0 -1 -2 -3 -4 -4 -4 -3 -4 -5 -5 -5 -5 -5 -5 -5 -5 -6 -6 -6 -6 -6 -5 -5 -5 -5 -5 -4 -4 -4 -3 -1
16 14 13 12 11 11 9 12 7 6 6 5 5 4 3 2 1 -0 -2 -3 -4 -5 -5 -5 -5 -5 -6 -6 -7 -7 -7 -7 -7 -7 -7 -6 -6 -6 -6 -6 -6 -6 -6 -6 -5 -5 -5 -4 -3
14 11 12 12 13 12 10 11 10 6 6 6 5 4 3 2 1 -1 -2 -4 -5 -6 -6 -6 -6 -6 -6 -7 -8 -8 -8 -8 -8 -8 -8 -7 -7 -7 -7 -7 -7 -6 -6 -6 -6 -5 -5 -4 -4
12 12 12 12 13 14 13 12 11 7 6 5 5 4 3 2 0 -2 -3 -4 -5 -6 -7 -7 -7 -7 -7 -7 -8 -9 -9 -9 -9 -9 -9 -9 -8 -7 -7 -7 -7 -7 -7 -6 -6 -5 -5 -4 -4
14 15 17 16 16 15 11 11 9 6 5 4 4 3 2 1 -1 -2 -4 -5 -6 -7 -8 -8 -8 -8 -8 -8 -9 -9 -9 -10 -10 -10 -10 -9 -9 -9 -8 -8 -8 -7 -7 -6 -6 -5 -5 -4 -4
12 14 15 15 16 15 12 11 7 6 4 4 3 3 2 0 -2 -3 -4 -6 -7 -8 -8 -8 -9 -9 -10 -10 -10 -10 -10 -11 -11 -11 -11 -10 -10 -10 -9 -9 -8 -8 -7 -6 -6 -6 -5 -5 -4
13 12 11 12 13 12 13 9 5 5 4 4 3 2 1 -1 -3 -4 -5 -6 -7 -8 -8 -9 -10 -10 -11 -11 -11 -11 -11 -11 -11 -11 -11 -11 -11 -10 -10 -9 -9 -8 -7 -7 -6 -6 -6 -5 -4
11 11 12 13 13 13 14 12 10 5 5 4 3 2 0 -1 -3 -4 -5 -6 -8 -8 -9 -9 -10 -11 -11 -11 -12 -12 -12 -12 -12 -12 -12 -12 -11 -11 -10 -10 -9 -9 -8 -7 -7 -6 -6 -5 -4
11 11 11 11 11 12 12 12 6 4 4 3 3 1 -1 -2 -4 -5 -6 -7 -8 -9 -9 -9 -10 -10 -11 -12 -12 -12 -12 -12 -13 -13 -13 -12 -12 -12 -11 -10 -10 -9 -8 -8 -7 -7 -7 -6 -5
10 10 10 11 11 10 10 10 5 4 3 3 2 1 -1 -3 -4 -5 -6 -7 -8 -9 -10 -10 -10 -10 -11 -11 -12 -12 -12 -13 -13 -13 -13 -13 -13 -12 -12 -11 -10 -10 -9 -8 -7 -7 -7 -6 -5
Wind_Speed
10 6 3 2 5 12 15 11 11 14 13 16 19 18 20 18 12 8 16 27 24 22 23 25 24 20 17 14 13 12 12 11 11 11 11 11 12 12 10 9 9 10 10 11 11 11 10 9 8
7 4 1 1 12 17 14 11 13 13 10 7 14 18 18 17 12 9 17 25 24 25 27 31 32 30 26 23 19 16 15 13 11 10 11 12 13 13 12 11 11 11 11 12 12 12 12 10 9
3 2 3 7 16 15 10 12 9 12 20 13 11 14 10 10 11 13 18 20 21 25 27 32 34 35 34 32 29 26 22 18 14 12 12 13 14 14 14 14 13 12 12 12 12 12 12 12 9
2 1 6 15 22 17 13 15 11 8 15 18 12 12 9 11 10 14 16 20 22 25 28 32 35 35 35 35 34 33 31 27 22 16 13 14 15 15 16 17 14 13 13 13 12 10 10 10 10
1 6 14 19 18 14 18 19 19 17 9 16 16 12 9 12 13 13 15 22 23 25 28 31 36 36 36 37 35 34 33 32 31 27 21 18 16 15 17 17 15 13 13 12 10 9 8 7 7
3 6 13 17 15 13 14 19 14 22 15 12 11 11 9 13 16 16 19 22 25 26 28 30 33 34 34 36 36 35 34 33 32 33 30 27 23 18 17 15 13 14 12 10 8 9 9 8 7
7 9 14 14 12 9 8 11 20 13 18 14 8 7 6 19 17 15 17 21 25 28 28 30 31 30 30 30 33 32 33 33 32 33 32 29 27 25 20 17 16 15 13 12 11 10 10 9 7
4 7 10 9 9 6 5 7 11 18 15 12 12 8 8 16 15 14 16 21 24 27 29 30 31 30 29 27 29 29 30 32 30 31 32 29 25 25 24 21 21 19 16 14 13 12 11 11 9
3 8 9 6 8 7 6 8 10 14 18 21 17 16 11 12 13 17 20 23 24 25 26 28 29 30 29 26 26 26 26 28 28 28 30 26 22 22 21 22 23 22 18 16 15 13 13 12 11
6 6 6 5 8 13 15 14 9 10 17 17 18 16 14 15 18 22 24 23 24 25 24 25 26 28 27 24 23 22 21 22 23 24 26 23 22 21 21 21 23 22 21 18 14 14 14 14 11
8 9 9 12 16 17 13 14 11 8 13 14 14 15 15 18 21 22 22 22 21 21 22 24 25 26 26 22 21 20 19 20 21 23 25 24 21 21 21 19 19 19 18 15 15 13 11 12 11
10 12 11 10 10 11 12 10 14 17 12 11 13 14 17 20 21 22 21 20 20 21 22 23 25 24 24 22 20 20 19 19 20 21 23 22 19 18 20 17 19 17 15 15 13 11 12 12 14
13 13 19 22 24 22 22 20 17 15 12 11 13 16 19 19 18 17 18 18 20 21 22 22 25 25 24 21 20 19 19 20 21 19 20 22 19 17 18 17 18 18 18 17 14 12 12 12 12
17 21 19 16 15 13 18 15 9 11 10 12 14 16 17 18 18 18 20 21 21 21 21 21 23 24 24 21 21 20 20 20 20 19 22 22 21 19 18 16 16 16 18 19 17 16 13 12 11
23 18 14 9 12 11 12 14 10 7 9 12 14 14 15 16 17 18 19 19 20 20 20 20 21 23 23 21 21 20 19 20 19 19 21 23 24 22 21 16 14 16 19 19 17 17 14 12 12
9 8 6 6 3 3 2 7 7 5 8 12 13 13 13 15 17 17 18 18 20 19 20 20 21 22 23 22 22 20 19 19 18 18 19 23 24 25 22 16 14 19 18 15 13 14 14 13 13
5 3 6 6 5 3 5 8 8 5 8 11 12 12 13 14 16 17 18 19 20 20 21 21 22 22 22 21 21 20 20 19 18 18 19 22 22 24 21 17 17 20 16 13 13 13 14 14 14
3 4 4 3 4 5 9 13 9 6 7 10 11 12 13 15 16 16 18 19 20 20 20 22 21 22 21 19 18 16 16 17 18 18 21 22 21 22 21 17 19 19 14 14 14 16 15 14 14
5 5 4 3 4 5 11 14 8 5 7 9 11 12 14 15 16 16 17 19 21 20 21 23 22 21 18 15 16 16 16 14 13 17 22 23 23 22 20 17 17 16 15 16 17 16 17 14 13
6 4 4 5 6 5 11 9 7 5 6 7 9 11 13 16 18 17 17 17 20 19 20 21 21 21 19 15 15 15 16 14 15 17 19 22 24 23 19 18 15 16 15 17 17 17 14 14 12
3 1 3 6 6 6 8 8 8 5 2 4 6 9 13 15 17 17 17 18 20 19 19 19 21 21 20 21 17 16 14 14 14 16 15 21 24 23 21 20 18 17 15 15 17 16 16 15 15
2 3 5 9 9 5 9 4 10 7 1 4 8 11 14 15 16 18 17 18 19 19 17 19 20 20 20 21 17 19 15 15 17 16 15 21 22 23 23 21 20 17 15 16 16 15 15 15 14
6 4 2 8 6 2 7 6 5 6 3 6 11 13 15 15 17 18 16 16 17 18 17 17 19 19 20 20 19 18 17 16 15 17 19 19 19 22 23 23 21 18 15 17 17 17 16 13 14
4 2 3 4 4 4 3 6 2 4 1 7 11 14 16 16 16 16 14 15 15 17 16 17 19 19 19 19 19 19 20 20 20 20 19 18 16 17 22 24 22 20 17 18 18 17 18 15 16
7 5 3 2 3 2 2 5 1 6 3 7 12 15 16 15 15 15 15 16 17 18 17 17 19 19 20 20 20 20 20 20 20 19 19 19 17 17 20 22 21 19 20 20 18 18 18 17 17
7 7 6 6 7 5 2 3 4 4 4 7 11 14 15 15 14 14 15 15 16 17 17 17 18 19 19 19 20 19 19 16 15 19 18 18 16 17 21 23 22 22 22 21 18 17 18 16 16
3 4 3 4 5 7 4 2 5 3 3 9 13 15 16 15 14 14 14 14 16 17 17 18 18 19 18 19 19 19 18 18 18 19 18 16 17 19 23 23 21 20 21 20 19 15 18 17 17
4 1 3 5 8 8 8 5 3 3 7 12 15 16 16 14 12 15 14 14 15 16 17 17 18 18 18 18 17 16 18 17 18 17 19 20 20 22 22 21 20 20 19 18 18 17 17 18 17
1 1 2 2 4 6 9 5 6 3 7 12 15 16 16 14 13 15 14 14 15 16 16 17 18 18 17 17 17 18 17 17 18 17 19 19 20 21 21 22 21 21 20 19 18 17 19 18 17
0 1 1 5 5 5 7 3 9 5 7 11 15 17 15 13 14 15 14 15 15 16 16 16 17 17 17 17 17 17 17 17 18 18 19 21 20 21 20 20 21 21 21 20 20 18 18 17 17
Wind_Direction
324 326 297 247 127 93 83 61 67 71 69 62 65 71 67 52 40 60 355 352 0 9 12 13 9 1 355 349 347 348 347 345 343 344 343 336 328 320 314 315 312 309 307 303 296 291 284 272 265
327 315 279 36 105 96 79 60 58 47 28 80 68 62 59 47 25 15 351 343 5 19 20 20 23 20 14 5 355 349 343 336 327 327 328 323 316 313 311 307 306 304 306 303 290 284 279 270 260
305 317 63 73 77 77 66 30 39 67 47 55 70 51 46 21 6 353 340 341 15 26 25 24 26 27 27 24 19 8 355 345 335 326 318 313 310 305 301 298 297 299 299 301 292 282 276 268 256
276 86 79 87 77 57 41 22 25 76 46 29 75 68 70 25 0 344 344 4 26 29 29 28 28 29 28 26 25 22 16 7 353 335 320 311 304 304 305 299 292 296 296 294 293 286 280 269 255
355 86 92 88 82 66 45 32 45 53 57 34 69 82 69 17 5 358 7 20 27 28 28 28 28 28 28 26 24 22 21 19 15 5 349 334 317 311 315 306 292 296 299 293 293 299 297 287 264
69 88 96 88 86 68 48 28 37 49 51 33 57 84 62 15 6 9 17 25 28 27 26 25 24 23 24 24 23 23 21 19 18 16 10 1 346 330 323 320 306 296 296 292 290 299 301 298 284
84 78 90 97 87 62 33 39 36 44 45 34 22 79 65 15 7 11 22 28 30 28 26 23 21 19 18 19 19 18 19 18 18 15 11 7 4 354 344 333 325 315 301 292 287 283 283 284 283
55 95 93 84 85 79 60 67 52 44 50 42 41 63 29 8 14 22 30 32 30 27 24 19 17 15 12 11 13 13 16 15 13 14 11 8 6 2 356 351 345 329 314 306 297 283 280 276 272
64 94 89 86 110 118 103 89 71 68 71 64 62 61 46 28 27 30 31 29 26 24 20 16 13 10 7 6 5 7 10 11 10 9 6 5 3 1 355 355 354 348 332 315 301 290 287 282 260
55 89 68 54 108 112 85 79 98 78 61 59 58 54 45 38 35 34 31 24 20 17 14 12 10 6 3 2 1 0 3 5 6 5 4 0 357 355 353 349 352 350 345 330 309 290 279 267 256
64 88 98 79 95 108 98 73 67 100 60 54 52 46 40 38 36 33 29 23 18 13 11 9 7 6 3 359 358 357 356 358 358 1 0 358 356 353 351 348 348 345 343 339 327 308 284 270 265
86 68 102 108 99 100 98 97 72 68 80 71 60 51 43 38 35 29 23 17 13 10 8 5 3 3 2 359 357 355 354 352 351 353 356 356 352 349 348 344 342 339 340 335 329 316 301 283 270
89 86 85 93 92 91 93 88 86 77 78 73 64 53 45 39 34 31 22 16 11 7 3 1 358 360 357 356 356 354 352 350 345 347 350 352 349 344 342 338 338 335 336 333 326 316 307 293 279
116 117 113 107 100 88 88 80 76 76 80 73 61 52 44 37 30 24 18 12 7 3 359 357 356 357 356 356 355 349 347 346 344 345 345 348 348 342 339 335 334 334 335 329 321 315 306 293 283
123 117 114 115 109 126 96 71 76 86 85 69 57 49 42 34 28 23 16 11 4 359 356 356 354 355 356 355 353 348 346 346 344 345 345 351 348 345 340 333 331 334 331 326 322 317 310 299 288
146 147 117 92 110 152 144 99 90 81 78 65 53 44 38 32 26 19 14 10 3 359 357 355 354 352 353 353 351 349 348 349 346 346 349 350 348 348 340 334 333 335 330 327 324 319 315 307 295
186 157 123 110 57 127 128 132 121 98 81 66 52 42 33 25 20 15 11 8 3 0 357 355 353 351 351 351 350 350 350 348 346 347 350 347 347 346 341 335 335 335 332 331 328 323 317 309 302
123 123 124 129 75 103 123 132 127 106 77 63 48 36 27 20 14 9 6 5 1 359 357 354 351 350 350 352 350 349 347 346 343 346 346 345 344 343 341 336 336 337 334 333 331 325 319 310 305
95 113 125 112 108 105 130 135 129 105 69 51 38 26 17 11 7 6 2 1 358 357 357 354 350 348 350 351 350 346 342 341 341 344 341 341 340 339 339 337 335 335 332 329 328 329 322 318 315
117 125 139 129 128 127 147 148 141 110 69 46 28 17 8 2 0 358 356 358 357 355 355 352 351 347 348 350 348 343 336 337 340 340 339 338 336 336 336 335 333 332 330 329 330 330 324 318 320
156 285 255 177 137 143 158 179 183 158 112 49 25 9 4 1 354 352 354 357 355 352 352 351 350 347 348 351 347 343 340 339 342 341 339 336 331 331 331 330 331 329 329 326 325 323 320 317 312
240 324 278 185 179 184 206 254 180 185 183 16 9 2 355 353 353 353 353 353 352 349 347 348 348 347 348 349 348 346 342 340 337 336 333 333 331 331 328 328 329 326 325 321 318 316 310 307 304
336 341 242 192 208 193 208 263 153 185 259 351 358 352 348 350 351 350 349 348 347 347 345 348 348 348 349 348 347 344 341 338 334 335 334 335 334 333 329 329 329 327 324 320 315 310 303 297 292
316 193 127 155 208 259 205 236 172 169 341 350 349 345 348 351 346 344 343 345 347 348 346 349 349 350 350 349 347 344 340 339 337 338 337 336 333 332 330 330 328 325 322 318 313 308 301 293 286
0 322 295 278 255 287 136 238 139 131 45 358 345 345 348 348 342 343 344 347 347 347 347 349 350 348 348 347 346 342 340 338 336 337 335 334 331 329 327 328 324 322 319 316 311 311 307 296 286
15 3 4 320 312 305 231 260 145 133 36 354 347 347 349 345 343 344 345 346 345 346 346 347 346 345 344 344 343 340 340 337 334 334 331 329 327 325 324 324 321 320 319 317 313 314 314 305 293
15 37 349 290 281 278 259 165 166 169 348 344 346 351 350 344 344 344 344 345 346 346 347 345 343 341 341 341 340 339 339 337 334 332 330 329 326 324 325 324 323 321 319 319 317 314 318 315 304
53 33 303 327 330 311 302 274 223 179 342 348 350 350 348 346 347 346 345 346 346 346 345 345 343 340 338 339 339 337 337 337 334 332 331 330 327 326 325 326 326 323 322 323 319 316 318 319 312
79 76 23 321 293 299 312 335 102 61 357 347 347 352 349 348 347 346 346 347 346 346 345 344 343 341 341 340 339 338 338 338 336 334 332 330 328 327 328 328 327 327 327 329 322 319 324 325 322
137 130 291 307 301 261 283 295 121 50 356 347 348 351 349 347 344 345 346 346 345 345 344 343 341 340 340 339 338 339 339 339 339 337 334 332 331 330 330 330 329 330 331 331 326 320 331 332 332
Height
1536 1535 1535 1536 1534 1536 1548 1553 1549 1549 1551 1556 1556 1557 1564 1569 1573 1587 1591 1584 1581 1577 1573 1570 1568 1566 1564 1563 1561 1559 1557 1555 1553 1552 1550 1548 1547 1546 1545 1544 1543 1542 1541 1540 1540 1539 1538 1538 1537
1536 1536 1538 1536 1532 1545 1556 1556 1557 1559 1561 1561 1562 1566 1570 1581 1588 1590 1586 1582 1581 1576 1573 1570 1568 1565 1564 1562 1560 1559 1557 1555 1553 1551 1549 1547 1546 1545 1544 1543 1542 1541 1540 1538 1538 1537 1536 1535 1535
1537 1537 1541 1539 1543 1553 1562 1565 1563 1564 1565 1563 1569 1576 1584 1595 1595 1593 1589 1585 1582 1578 1574 1571 1568 1566 1563 1561 1558 1557 1555 1554 1553 1551 1549 1547 1545 1544 1543 1542 1540 1539 1537 1536 1535 1534 1533 1533 1532
1539 1542 1542 1546 1559 1568 1572 1572 1569 1565 1568 1572 1573 1585 1597 1604 1602 1598 1592 1588 1582 1578 1575 1572 1569 1566 1564 1561 1558 1556 1553 1551 1550 1549 1548 1546 1545 1543 1541 1540 1538 1536 1535 1534 1533 1532 1531 1530 1530
1542 1544 1547 1556 1566 1576 1581 1580 1578 1573 1577 1582 1580 1593 1603 1607 1604 1599 1594 1588 1582 1579 1575 1572 1569 1566 1564 1561 1559 1556 1554 1551 1549 1546 1545 1544 1543 1541 1539 1538 1536 1534 1532 1531 1531 1529 1528 1528 1527
1546 1546 1552 1564 1572 1578 1583 1586 1581 1583 1587 1589 1590 1596 1607 1609 1602 1598 1594 1589 1584 1580 1577 1574 1571 1568 1564 1562 1559 1557 1554 1552 1549 1546 1543 1541 1539 1538 1537 1535 1533 1532 1530 1529 1528 1527 1526 1525 1525
1549 1552 1560 1568 1576 1584 1590 1592 1591 1591 1593 1597 1598 1599 1607 1607 1603 1600 1596 1591 1586 1582 1578 1575 1572 1569 1567 1564 1561 1558 1555 1552 1549 1546 1543 1541 1537 1535 1533 1532 1530 1528 1528 1527 1526 1525 1524 1523 1522
1553 1557 1564 1570 1579 1590 1596 1597 1600 1599 1603 1604 1602 1605 1611 1610 1606 1603 1598 1592 1587 1583 1580 1577 1574 1571 1568 1565 1561 1558 1555 1551 1548 1545 1542 1539 1536 1533 1531 1529 1526 1525 1524 1523 1522 1521 1521 1520 1519
1555 1560 1569 1574 1580 1592 1597 1599 1604 1610 1610 1609 1610 1612 1614 1611 1607 1602 1596 1592 1588 1585 1582 1579 1576 1572 1569 1566 1562 1558 1554 1551 1547 1544 1541 1538 1534 1531 1529 1527 1524 1522 1520 1519 1518 1517 1516 1516 1515
1560 1566 1579 1583 1584 1593 1600 1603 1606 1612 1612 1613 1615 1615 1614 1611 1605 1599 1596 1593 1589 1586 1583 1580 1577 1573 1570 1566 1562 1559 1555 1551 1547 1543 1539 1535 1532 1529 1527 1524 1522 1520 1517 1515 1514 1513 1513 1512 1512
1570 1578 1588 1593 1594 1598 1602 1606 1609 1612 1616 1619 1618 1617 1615 1610 1605 1602 1600 1597 1594 1590 1586 1582 1578 1574 1570 1565 1561 1557 1553 1549 1545 1541 1537 1533 1530 1526 1523 1521 1518 1516 1514 1512 1510 1509 1509 1508 1508
1578 1589 1591 1597 1600 1602 1604 1609 1614 1616 1622 1623 1622 1620 1617 1612 1609 1606 1603 1600 1596 1592 1588 1583 1579 1574 1569 1565 1560 1556 1551 1547 1543 1539 1534 1530 1527 1523 1520 1517 1514 1512 1510 1508 1507 1505 1504 1503 1503
1585 1598 1600 1604 1606 1608 1610 1614 1618 1624 1625 1625 1624 1621 1618 1615 1612 1609 1606 1602 1597 1592 1588 1583 1578 1573 1568 1563 1558 1553 1549 1545 1541 1537 1532 1528 1523 1519 1516 1513 1510 1508 1505 1504 1502 1501 1499 1498 1498
1590 1597 1602 1606 1607 1612 1614 1619 1622 1629 1628 1626 1624 1621 1619 1616 1613 1609 1605 1600 1596 1591 1586 1581 1576 1571 1565 1560 1555 1550 1546 1542 1538 1535 1530 1526 1521 1516 1512 1509 1506 1503 1500 1498 1497 1496 1494 1493 1492
1590 1596 1603 1608 1610 1614 1614 1623 1628 1630 1628 1626 1624 1622 1620 1617 1613 1610 1605 1601 1596 1591 1585 1579 1574 1568 1563 1558 1552 1547 1543 1539 1535 1531 1528 1523 1518 1513 1508 1505 1501 1498 1494 1492 1490 1489 1488 1487 1486
1588 1589 1596 1609 1611 1614 1614 1624 1632 1631 1630 1626 1625 1623 1621 1618 1615 1611 1607 1602 1597 1591 1585 1579 1573 1567 1561 1556 1551 1545 1541 1536 1532 1528 1524 1519 1514 1509 1504 1501 1497 1493 1489 1486 1484 1483 1482 1481 1479
1582 1583 1592 1606 1612 1611 1611 1622 1630 1631 1629 1626 1625 1623 1621 1619 1615 1611 1607 1602 1596 1590 1584 1578 1571 1565 1559 1553 1547 1542 1538 1534 1530 1525 1520 1515 1510 1505 1501 1497 1493 1488 1485 1481 1479 1477 1476 1474 1472
1582 1584 1593 1600 1611 1612 1613 1622 1629 1630 1628 1626 1626 1624 1622 1619 1616 1612 1608 1602 1596 1590 1583 1577 1571 1564 1557 1550 1544 1538 1533 1529 1526 1523 1517 1512 1507 1502 1497 1493 1489 1485 1480 1477 1473 1471 1469 1468 1466
1586 1587 1593 1605 1614 1615 1619 1624 1629 1631 1629 1628 1627 1625 1622 1620 1617 1612 1607 1601 1595 1588 1582 1576 1569 1563 1556 1548 1542 1535 1530 1525 1521 1518 1514 1510 1505 1500 1495 1490 1485 1481 1477 1473 1469 1465 1462 1461 1460
1588 1590 1596 1608 1614 1614 1620 1624 1628 1629 1629 1628 1626 1624 1622 1620 1616 1612 1607 1601 1595 1588 1582 1575 1568 1562 1555 1549 1542 1536 1530 1525 1520 1515 1510 1506 1502 1498 1493 1488 1484 1479 1473 1469 1465 1461 1457 1456 1457
1590 1590 1592 1601 1614 1616 1618 1622 1626 1627 1627 1627 1626 1625 1623 1620 1615 1611 1605 1600 1593 1587 1580 1573 1566 1560 1554 1547 1540 1533 1528 1523 1517 1512 1507 1502 1499 1495 1491 1487 1482 1476 1471 1466 1461 1458 1454 1451 1450
1591 1596 1596 1599 1604 1604 1612 1594 1615 1623 1625 1626 1625 1623 1621 1618 1614 1610 1604 1598 1592 1586 1579 1572 1564 1558 1552 1545 1538 1532 1527 1522 1517 1512 1506 1500 1495 1491 1487 1483 1478 1473 1468 1463 1458 1455 1451 1448 1445
1597 1599 1597 1597 1596 1598 1605 1601 1606 1623 1622 1623 1623 1621 1619 1616 1613 1608 1602 1596 1591 1584 1578 1570 1563 1556 1550 1544 1538 1532 1527 1521 1516 1510 1504 1497 1491 1486 1482 1478 1474 1469 1464 1459 1454 1450 1447 1444 1441
1602 1599 1599 1598 1595 1590 1591 1596 1594 1614 1619 1620 1620 1619 1617 1615 1611 1606 1601 1596 1590 1583 1576 1569 1561 1555 1549 1542 1537 1531 1526 1519 1513 1507 1500 1493 1488 1482 1477 1473 1468 1464 1459 1454 1449 1444 1440 1437 1434
1599 1592 1583 1580 1581 1579 1596 1593 1601 1617 1621 1622 1621 1619 1616 1614 1609 1604 1600 1595 1589 1582 1575 1567 1560 1553 1547 1541 1535 1529 1524 1518 1512 1505 1498 1491 1485 1479 1473 1468 1463 1459 1454 1449 1444 1438 1433 1429 1426
1607 1601 1599 1594 1583 1578 1592 1591 1610 1620 1623 1623 1621 1619 1615 1612 1607 1603 1599 1593 1587 1580 1573 1565 1558 1551 1545 1538 1532 1527 1522 1516 1509 1503 1497 1490 1484 1477 1471 1465 1460 1455 1450 1444 1439 1433 1426 1421 1418
1608 1609 1611 1605 1598 1598 1584 1602 1617 1621 1621 1621 1619 1617 1614 1610 1606 1602 1597 1591 1585 1578 1570 1564 1556 1549 1543 1536 1530 1524 1519 1513 1506 1500 1494 1488 1481 1475 1468 1463 1457 1452 1446 1441 1435 1429 1422 1415 1411
1615 1615 1609 1604 1600 1588 1577 1587 1596 1616 1619 1619 1617 1615 1612 1608 1604 1600 1595 1589 1583 1576 1569 1562 1555 1548 1541 1535 1528 1522 1516 1510 1504 1497 1491 1485 1478 1472 1465 1459 1453 1448 1443 1437 1431 1426 1419 1412 1405
1615 1616 1614 1612 1609 1601 1588 1585 1610 1617 1619 1619 1616 1613 1610 1606 1602 1597 1592 1587 1581 1574 1567 1560 1553 1546 1539 1533 1526 1520 1513 1507 1501 1495 1488 1482 1475 1469 1462 1455 1449 1444 1439 1433 1428 1423 1416 1408 1401
1617 1616 1615 1611 1605 1610 1604 1601 1615 1617 1618 1617 1614 1611 1609 1605 1601 1595 1590 1584 1578 1571 1564 1557 1550 1543 1537 1531 1524 1518 1512 1505 1499 1492 1485 1479 1472 1466 1460 1453 1446 1440 1435 1429 1423 1419 1413 1405 1398